ROMMA est une association bénévole à but non lucratif. Votre soutien est indispensable : ADHERER à ROMMA ou FAIRE un DON

Crêts du Salève - (74, Haute-Savoie)

Salève (1270 m)   Longitude: 6° 10' 28'' E   Latitude: 46° 7' 42'' N Station romma n°73
 

Détail journalier du     <<     >>

Température Humidité Vent Dir Rafale Dir. rafale Ensol.
Heure (°C) (%) (km/h) (km/h) (min)
01:00 -5.69724NE32NE0
02:00 -5.89622NE31NE0
03:00 -6.09720NE26NE0
04:00 -6.19617NE23NE0
05:00 -6.19614NE19NE0
06:00 -6.39611NNE18NNE0
07:00 -6.59611NNE15NNE0
08:00 -6.49612NNE16NNE0
09:00 -6.6969NNE15NNE0
10:00 -6.3967N13NNE60
11:00 -6.1963N6N60
12:00 -5.2974N8N60
13:00 -5.7963N8N60
14:00 -5.3971N6N60
15:00 -5.3977N27N60
16:00 -5.29624N37N60
17:00 -5.39531NNE39NNE10
18:00 -5.59534NNE40NNE0
19:00 -5.69635NNE42NNE0
20:00 -5.89634NNE42NNE0
21:00 -5.49325NNE34NNE0
22:00 -5.59520NNE27NNE0
23:00 -5.49419NNE26NE0
minuit -5.29120NE26NNE0

Graphique du 20-01-2020

 

Serveur OMMA